This is the latest recevied weather packets stored in our database for station/object KE0PRS. If no packets are shown the sender has not sent any weather packets the latest 10 day(s).
| Time | Temp. | Humidity | Pressure | Rain* | Wind** | Luminosity | Snow |
|---|---|---|---|---|---|---|---|
| 1778054042 | 6.11° C | 94% | 1017 hPa | 0 mm | - | 0 W/m² | - |
| 1778053739 | 6.11° C | 94% | 1017 hPa | 0 mm | - | 0 W/m² | - |
| 1778053436 | 6.11° C | 94% | 1017.3 hPa | 0 mm | - | 0 W/m² | - |
| 1778053134 | 6.11° C | 94% | 1017.6 hPa | 0 mm | - | 0 W/m² | - |
| 1778052831 | 6.67° C | 94% | 1017.8 hPa | 0 mm | - | 0 W/m² | - |
| 1778052528 | 6.67° C | 94% | 1017.8 hPa | 1.78 mm | - | 0 W/m² | - |
| 1778052226 | 6.67° C | 94% | 1018.2 hPa | 1.78 mm | - | 0 W/m² | - |
| 1778051923 | 6.67° C | 94% | 1018.4 hPa | 0 mm | - | 0 W/m² | - |
| 1778051621 | 6.67° C | 94% | 1018.5 hPa | 0 mm | - | 0 W/m² | - |
| 1778051317 | 6.67° C | 94% | 1018.5 hPa | 1.27 mm | - | 0 W/m² | - |
| 1778051015 | 6.67° C | 94% | 1018.3 hPa | 1.27 mm | - | 0 W/m² | - |
| 1778050712 | 6.67° C | 94% | 1018.5 hPa | 1.78 mm | - | 0 W/m² | - |
| 1778050410 | 6.67° C | 94% | 1018.4 hPa | 0 mm | - | 0 W/m² | - |
| 1778050106 | 6.67° C | 93% | 1018.4 hPa | 0 mm | - | 0 W/m² | - |
| 1778049801 | 6.67° C | 93% | 1018.5 hPa | 0 mm | - | 0 W/m² | - |
| 1778049499 | 6.67° C | 93% | 1018 hPa | 0 mm | - | 0 W/m² | - |
| 1778049196 | 6.11° C | 93% | 1018.2 hPa | 0 mm | - | 0 W/m² | - |
| 1778048895 | 6.11° C | 93% | 1017.9 hPa | 0 mm | - | 0 W/m² | - |
| 1778048592 | 6.11° C | 93% | 1017.4 hPa | 0 mm | - | 0 W/m² | - |
| 1778048288 | 6.11° C | 92% | 1017.4 hPa | 1.27 mm | - | 0 W/m² | - |
| 1778047985 | 6.11° C | 92% | 1016.6 hPa | 1.27 mm | - | 0 W/m² | - |
| 1778047683 | 6.11° C | 92% | 1016.7 hPa | 0 mm | - | 0 W/m² | - |
| 1778047381 | 6.11° C | 92% | 1016.6 hPa | 0 mm | - | 0 W/m² | - |
| 1778047077 | 6.11° C | 91% | 1017 hPa | 0 mm | - | 0 W/m² | - |
| 1778046774 | 6.11° C | 91% | 1016.9 hPa | 0 mm | - | 0 W/m² | - |
* Rain latest hour (hover to see other rain measurements)
** Current wind speed in m/s (hover to see current wind gust speed)